This is the latest recevied weather packets stored in our database for station/object IZ7EXI-13. If no packets are shown the sender has not sent any weather packets the latest 10 day(s).
| Time | Temp. | Humidity | Pressure | Rain* | Wind** | Luminosity | Snow |
|---|---|---|---|---|---|---|---|
| 1788297730 | 27.22° C | 54% | 1019.1 hPa | - | - | - | - |
| 1788296863 | 27.22° C | 53% | 1019 hPa | - | - | - | - |
| 1788296830 | 27.22° C | 53% | 1019 hPa | - | - | - | - |
| 1788295929 | 27.78° C | 53% | 1019 hPa | - | - | - | - |
| 1788295029 | 27.78° C | 52% | 1019 hPa | - | - | - | - |
| 1788294129 | 27.78° C | 51% | 1019.1 hPa | - | - | - | - |
| 1788293229 | 28.33° C | 51% | 1019 hPa | - | - | - | - |
| 1788292329 | 28.33° C | 50% | 1019 hPa | - | - | - | - |
| 1788291428 | 28.89° C | 50% | 1018.9 hPa | - | - | - | - |
| 1788290528 | 28.89° C | 51% | 1018.9 hPa | - | - | - | - |
| 1788289628 | 28.89° C | 50% | 1018.8 hPa | - | - | - | - |
| 1788288728 | 29.44° C | 50% | 1018.8 hPa | - | - | - | - |
| 1788287827 | 29.44° C | 52% | 1018.7 hPa | - | - | - | - |
| 1788286927 | 30° C | 54% | 1018.5 hPa | - | - | - | - |
| 1788286027 | 30° C | 54% | 1018.3 hPa | - | - | - | - |
| 1788285127 | 30° C | 55% | 1018 hPa | - | - | - | - |
| 1788284227 | 30.56° C | 52% | 1017.8 hPa | - | - | - | - |
| 1788283326 | 31.67° C | 51% | 1017.8 hPa | - | - | - | - |
| 1788282426 | 32.78° C | 47% | 1017.9 hPa | - | - | - | - |
| 1788281526 | 33.33° C | 46% | 1017.9 hPa | - | - | - | - |
| 1788280626 | 33.89° C | 45% | 1018 hPa | - | - | - | - |
| 1788279758 | 35° C | 44% | 1018.1 hPa | - | - | - | - |
| 1788279726 | 35° C | 44% | 1018.1 hPa | - | - | - | - |
| 1788278827 | 35° C | 45% | 1018.2 hPa | - | - | - | - |
| 1788277925 | 35° C | 39% | 1018.3 hPa | - | - | - | - |
* Rain since midnight (hover to see other rain measurements)
** Current wind speed in m/s (hover to see current wind gust speed)